Regional Weather Roundup
Issued by NWS

Home | Current Version | Previous Version | Graphics & Text | Print | Product List | Glossary On
Versions: 1 2 3 4 5 6 7 8 9 10 11 12 13 14 15 16 17 18 19 20 21 22 23 24 25 26 27 28 29 30 31 32 33 34 35 36 37 38 39 40 41 42 43 44 45 46 47 48 49 50
716
ASUS45 KPSR 032110
RWRAZ

ARIZONA HOURLY REGIONAL WEATHER ROUNDUP
NATIONAL WEATHER SERVICE PHOENIX AZ
200 PM MST SAT DEC 03 2016

NOTE: FAIR INDICATES FEW OR NO CLOUDS BELOW 12,000 FEET WITH NO
SIGNIFICANT WEATHER AND/OR OBSTRUCTIONS TO VISIBILITY.

AZZ001>003-036-032200-
NORTHWEST ARIZONA

CITY           SKY/WX    TMP DP  RH WIND       PRES   REMARKS
BULLHEAD CITY  SUNNY     59  14  17 N31       30.09F
KINGMAN        SUNNY     51   8  17 N14       30.11F
$$

AZZ004>008-015-016-018-032200-
NORTH CENTRAL ARIZONA

CITY           SKY/WX    TMP DP  RH WIND       PRES   REMARKS
GRAND CANYON   SUNNY     39  13  34 NE8       30.11F WCI  33
PRESCOTT       SUNNY     51  19  28 NE6       30.03F
FLAGSTAFF      SUNNY     40  17  39 E15G24    30.06F WCI  32
PAYSON         SUNNY     52  19  28 N13       30.03F
PAGE           SUNNY     43   9  24 NW3       30.15F
$$

AZZ009>014-017-032200-
NORTHEAST ARIZONA

CITY           SKY/WX    TMP DP  RH WIND       PRES   REMARKS
WINSLOW        SUNNY     46  21  37 NW8       30.08F
SAINT JOHNS    SUNNY     44  25  47 NW7       30.03F
SHOW LOW       SUNNY     37  23  56 N15G21    30.05F WCI  28
$$

AZZ023-032200-
GREATER PHOENIX AREA

CITY           SKY/WX    TMP DP  RH WIND       PRES   REMARKS
PHOENIX        MOSUNNY   67  23  19 NW3       29.91F
BUCKEYE        SUNNY     66  19  16 NW9       29.95F
GLENDALE       SUNNY     70  25  18 NW8       29.94F
LUKE AFB       SUNNY     68  25  20 NW8       29.91F
DEER VALLEY    SUNNY     66  23  19 VRB3      29.91F
SCOTTSDALE     SUNNY     67  22  18 NW7       29.93F
MESA-FALCON    SUNNY    N/A N/A N/A N9        29.89F
MESA-GATEWAY   MOSUNNY   64  27  24 N12G20    29.93F
CHANDLER       SUNNY     66  23  19 N14       29.93F
$$

AZZ027-028-032200-
SOUTHWEST MARICOPA COUNTY AND PINAL COUNTY

CITY           SKY/WX    TMP DP  RH WIND       PRES   REMARKS
CASA GRANDE    NOT AVBL
GILA BEND      SUNNY     64  21  19 NW7       29.94F
$$

AZZ503-504-507>509-032200-
SOUTHEAST ARIZONA

CITY           SKY/WX    TMP DP  RH WIND       PRES   REMARKS
TUCSON         SUNNY     63  29  27 NW8       29.92F
DAVIS-MONTHAN  SUNNY     60  29  30 NW13      29.90F
RYAN FIELD     SUNNY     61  30  31 NW10G17   29.93
NOGALES        MOSUNNY   60  36  40 VRB3      29.89F
SIERRA VISTA   CLOUDY    51  36  56 SE6       29.93F
DOUGLAS        PTSUNNY   53  38  56 E16       29.92F
SAFFORD        SUNNY     58  36  43 S3        29.90F
$$

AZZ020-021-025-026-031-032200-
SOUTHWEST ARIZONA

CITY           SKY/WX    TMP DP  RH WIND       PRES   REMARKS
YUMA           SUNNY     66  15  14 N20       30.00F
$$

CAZ031-033-041-043-047-048-061-032200-
SOUTHERN CALIFORNIA

CITY           SKY/WX    TMP DP  RH WIND       PRES   REMARKS
DOWNTOWN L.A.  SUNNY     67  22  18 CALM      30.06F
L.A. AIRPORT   SUNNY     65  36  34 W10       30.07F
SAN DIEGO      SUNNY     64  26  23 NW10      30.06F
BURBANK        SUNNY     64  13  13 E6        30.06F
ONTARIO        MOSUNNY   65  10  11 W9        30.06F
RIVERSIDE      SUNNY     70   7   8 N12G21    30.05F
PALM SPRINGS   SUNNY     70   0   6 SE12      30.07F
EL CENTRO NAS  SUNNY     67  10  11 N16       30.08F
IMPERIAL       SUNNY     67  22  18 N17G23    30.05F
BLYTHE         MOSUNNY   67  12  12 N25G31    30.03F
NEEDLES        SUNNY     63  13  14 NE28G35   30.09F
$$

NVZ020-UTZ003-032200-
SOUTHERN NEVADA-UTAH

CITY           SKY/WX    TMP DP  RH WIND       PRES   REMARKS
LAS VEGAS      MOSUNNY   55   5  13 E7        30.16F
SALT LAKE CITY CLOUDY    34  20  56 S8        30.26F WCI  27
$$

NMZ009-TXZ055-032200-
NEW MEXICO-WEST TEXAS

CITY           SKY/WX    TMP DP  RH WIND       PRES   REMARKS
ALBUQUERQUE    MOSUNNY   46  27  47 NW3       29.99F
EL PASO        PTSUNNY   45  38  76 N14       29.93F
$$


........................KEY........................
SKY/WX - SKY CONDITION/WEATHER
TMP    - TEMPERATURE IN FAHRENHEIT
DP     - DEW POINT IN FAHRENHEIT
RH     - RELATIVE HUMIDITY IN PERCENT
WIND   - DIRECTION AND SPEED IN MILES PER HOUR (MPH)
VRB    - VARIABLE WIND DIRECTION
PRES   - MEAN SEA LEVEL PRESSURE IN INCHES OF MERCURY
         F - FALLING PRESSURE   R - RISING PRESSURE
         S - STEADY PRESSURE
VSB    - VISIBILITY IN MILES
HX     - HEAT INDEX IN FAHRENHEIT
WCI    - WIND CHILL INDEX IN FAHRENHEIT
TC     - TEMPERATURE IN CELSIUS WHICH IS ALSO KNOWN AS
         TEMPERATURE IN CENTIGRADE
AFB    - AIR FORCE BASE
         LUKE AFB IS LUKE AIR FORCE BASE
         DAVIS-MONTHAN IS DAVIS-MONTHAN AIR FORCE BASE
NAS    - NAVAL AIR STATION
         EL CENTRO NAS IS EL CENTRO NAVAL AIR STATION
N/A    - NOT AVAILABLE





USA.gov is the U.S. government's official web portal to all federal, state and local government web resources and services.